User: anonymous   Login
Location: Newark
(45.2500°N, 7.5833°E)
Time: 12:52:19
(UTC+00:00)
Language:

Altair - Orbit

View from above orbital plane
View from above orbital plane
View from above satellite
View from above satellite

Ground track
Ground track

The orbit data is extracted from the following two-line orbital elements,

1    50U 60009B   20027.85802586 -.00000086 +00000-0 -13949-4 0  9999
2    50 047.2294 200.7341 0113342 263.6268 095.1604 12.20109010652935
Epoch (UTC): 27 January 2020 20:35:33
Eccentricity: 0.0113342
inclination: 47.2294°
perigee height: 1502 km
apogee height: 1682 km
right ascension of ascending node: 200.7341°
argument of perigee: 263.6268°
revolutions per day: 12.20109010
mean anomaly at epoch: 95.1604°
orbit number at epoch: 65293

The dashed part of the orbit path shows where the satellite is in the earth's shadow,  

DLR